CW8386 Weather Reports


Display with metric or nautical units.
time (UTC)temp
F
wind
direction
speed
MPH
gust
MPH
rain 1hr
in
rain 24hr
in
rain mn
in
humidity
%
barometer
mb
20260506211123 56 360 4.0 11.0 0.00 0.03 0.02 27 1015.4
20260506210100 55 360 6.0 12.0 0.00 0.03 0.02 26 1015.6
20260506205601 55 360 8.0 11.0 0.00 0.03 0.02 27 1015.8
20260506205102 55 360 4.0 6.0 0.00 0.03 0.02 29 1015.8
20260506204543 54 360 1.0 6.0 0.00 0.03 0.02 30 1015.9
20260506204045 53 360 0.0 6.0 0.00 0.03 0.02 29 1015.9
20260506203544 53 360 2.0 12.0 0.00 0.03 0.02 29 1016.1
20260506203025 54 360 0.0 12.0 0.00 0.03 0.02 29 1016.2
20260506202527 54 360 4.0 12.0 0.00 0.03 0.02 29 1016.3
20260506202029 54 360 0.0 12.0 0.00 0.03 0.02 28 1016.2
20260506201529 54 360 3.0 11.0 0.00 0.03 0.02 29 1016.4
20260506201032 53 360 1.0 6.0 0.00 0.03 0.02 29 1016.5
20260506200111 53 360 0.0 17.0 0.00 0.03 0.02 30 1016.5
20260506195551 52 360 13.0 17.0 0.00 0.03 0.02 31 1016.6
20260506195053 52 360 0.0 13.0 0.00 0.03 0.02 30 1016.6
20260506194553 52 360 0.0 11.0 0.00 0.03 0.02 30 1016.7
20260506194034 51 360 1.0 5.0 0.00 0.03 0.02 30 1016.7
20260506193535 52 360 0.0 9.0 0.00 0.03 0.02 31 1016.8
20260506193116 52 360 1.0 9.0 0.00 0.03 0.02 30 1016.9
20260506192054 52 360 1.0 16.0 0.00 0.03 0.02 32 1016.9
20260506191554 51 360 6.0 15.0 0.00 0.03 0.02 32 1017.0
20260506191116 51 360 6.0 12.0 0.00 0.03 0.02 34 1017.1
20260506190535 51 360 3.0 17.0 0.00 0.04 0.02 33 1017.1
20260506190035 51 360 1.0 17.0 0.00 0.04 0.02 32 1017.1
20260506185557 50 360 3.0 14.0 0.00 0.04 0.02 34 1017.2
20260506185118 50 360 5.0 14.0 0.00 0.04 0.02 34 1017.4
20260506184537 50 360 7.0 18.0 0.00 0.04 0.02 34 1017.3
20260506184121 50 360 9.0 18.0 0.00 0.04 0.02 35 1017.6
20260506183539 49 360 8.0 15.0 0.00 0.04 0.02 36 1017.6
20260506183100 49 360 5.0 13.0 0.00 0.04 0.02 37 1017.7
20260506182621 48 360 2.0 11.0 0.00 0.04 0.02 38 1017.9
20260506181558 49 360 8.0 16.0 0.00 0.04 0.02 39 1018.1
20260506181059 48 360 0.0 9.0 0.00 0.04 0.02 39 1018.1
20260506180559 48 360 2.0 13.0 0.00 0.04 0.02 40 1018.3
20260506175539 47 360 3.0 12.0 0.00 0.04 0.02 42 1018.3
20260506175101 47 360 5.0 12.0 0.00 0.04 0.02 40 1018.4
20260506174541 47 360 0.0 7.0 0.00 0.04 0.02 40 1018.4
20260506174104 47 360 2.0 15.0 0.00 0.04 0.02 40 1018.5
20260506173543 47 360 5.0 15.0 0.00 0.04 0.02 40 1018.5
20260506173045 47 360 10.0 15.0 0.00 0.04 0.02 42 1018.5
20260506172525 47 360 4.0 15.0 0.00 0.04 0.02 40 1018.5
20260506172028 47 360 8.0 15.0 0.00 0.04 0.02 41 1018.5
20260506171526 46 360 4.0 13.0 0.00 0.04 0.02 42 1018.6
20260506171108 46 360 4.0 13.0 0.00 0.04 0.02 41 1018.6
20260506170526 46 360 1.0 13.0 0.00 0.04 0.02 43 1018.7
20260506170048 45 360 7.0 13.0 0.00 0.04 0.02 43 1018.7
20260506165548 45 360 0.0 10.0 0.00 0.04 0.02 42 1018.7
20260506165028 45 360 0.0 10.0 0.00 0.04 0.02 42 1018.7
20260506164549 45 360 3.0 7.0 0.00 0.04 0.02 42 1018.9
20260506164029 46 360 0.0 5.0 0.00 0.04 0.02 40 1018.9
20260506163550 45 360 0.0 7.0 0.00 0.04 0.02 40 1018.9
20260506163051 46 360 0.0 7.0 0.00 0.04 0.02 40 1018.9
20260506162535 47 360 0.0 0.0 0.00 0.04 0.02 39 1019.0
20260506162036 46 360 0.0 0.0 0.00 0.04 0.02 40 1019.1
20260506161538 45 360 0.0 0.0 0.00 0.04 0.02 41 1019.2
20260506161040 44 360 0.0 0.0 0.00 0.04 0.02 41 1019.3
20260506160600 44 360 0.0 0.0 0.00 0.05 0.02 41 1019.3
20260506155101 43 360 0.0 0.0 0.01 0.05 0.02 43 1019.5
20260506154622 44 360 0.0 0.0 0.01 0.05 0.02 43 1019.6
20260506154043 43 360 0.0 0.0 0.01 0.05 0.02 43 1019.6
20260506153604 43 360 0.0 0.0 0.01 0.05 0.02 44 1019.6
20260506153124 42 360 0.0 0.0 0.01 0.05 0.02 47 1019.7
20260506152523 42 360 0.0 0.0 0.01 0.05 0.02 47 1019.8
20260506152046 41 360 0.0 0.0 0.01 0.05 0.02 48 1019.8
20260506151526 41 360 0.0 0.0 0.01 0.05 0.02 51 1019.8
20260506151028 41 360 0.0 0.0 0.01 0.05 0.02 49 1020.0
20260506150550 41 360 0.0 0.0 0.01 0.05 0.02 50 1020.0
20260506150029 41 360 0.0 0.0 0.00 0.04 0.01 51 1020.0
20260506145551 41 360 0.0 0.0 0.00 0.04 0.01 50 1020.1
20260506145032 42 360 0.0 0.0 0.00 0.04 0.01 52 1020.0
20260506144534 41 360 0.0 0.0 0.00 0.04 0.01 53 1020.1
20260506144056 41 360 0.0 0.0 0.00 0.04 0.01 55 1020.1
20260506143559 40 360 0.0 0.0 0.00 0.04 0.01 56 1020.1
20260506143120 39 360 0.0 0.0 0.00 0.04 0.01 57 1020.1
20260506142620 38 360 0.0 0.0 0.00 0.04 0.01 58 1020.2
20260506142041 38 360 0.0 0.0 0.00 0.04 0.01 59 1020.2
20260506141523 37 360 0.0 0.0 0.00 0.04 0.01 59 1020.3
20260506141045 37 360 0.0 0.0 0.01 0.04 0.01 59 1020.2
20260506140527 36 360 0.0 0.0 0.01 0.05 0.01 61 1020.1
20260506140051 36 360 0.0 0.0 0.01 0.05 0.01 61 1020.2
20260506135533 37 360 0.0 0.0 0.01 0.05 0.01 61 1020.2
20260506135035 37 360 0.0 0.0 0.01 0.05 0.01 61 1020.2
20260506134558 37 360 0.0 0.0 0.01 0.05 0.01 64 1020.2
20260506134059 37 360 0.0 0.0 0.01 0.05 0.01 64 1020.2
20260506133601 36 360 0.0 0.0 0.01 0.05 0.01 65 1020.2
20260506133026 36 360 0.0 0.0 0.01 0.05 0.01 67 1020.3
20260506132528 35 360 0.0 0.0 0.01 0.05 0.01 69 1020.1
20260506132031 34 360 0.0 0.0 0.01 0.05 0.01 71 1020.1
20260506131034 32 360 0.0 0.0 0.00 0.04 0.00 75 1020.1
20260506130050 30 360 0.0 0.0 0.00 0.05 0.00 78 1020.0
20260506125536 29 360 0.0 0.0 0.00 0.05 0.00 79 1020.0
20260506125038 28 360 0.0 0.0 0.00 0.05 0.00 79 1019.8
20260506124601 27 360 0.0 0.0 0.00 0.05 0.00 79 1019.9
20260506124123 27 360 0.0 0.0 0.00 0.05 0.00 79 1019.8
20260506123523 26 360 0.0 5.0 0.00 0.05 0.00 78 1019.8
20260506123024 26 360 0.0 5.0 0.00 0.05 0.00 78 1019.7
20260506122527 26 360 4.0 5.0 0.00 0.05 0.00 78 1019.6
20260506122030 26 360 3.0 4.0 0.00 0.05 0.00 78 1019.6
20260506121533 26 360 4.0 4.0 0.00 0.05 0.00 78 1020.3
20260506121037 26 360 0.0 4.0 0.00 0.05 0.00 78 1020.2
20260506120535 26 360 1.0 4.0 0.00 0.05 0.00 78 1020.2
20260506120037 26 360 1.0 4.0 0.00 0.05 0.00 78 1020.2
20260506115539 26 360 3.0 4.0 0.00 0.05 0.00 78 1020.1
20260506115121 26 360 0.0 5.0 0.00 0.05 0.00 78 1020.1
20260506114622 26 360 1.0 6.0 0.00 0.05 0.00 78 1020.1
20260506114043 25 360 4.0 6.0 0.00 0.05 0.00 78 1020.0
20260506113526 25 360 2.0 6.0 0.00 0.05 0.00 77 1020.0
20260506113028 26 360 4.0 6.0 0.00 0.05 0.00 77 1020.0
20260506112535 26 360 5.0 6.0 0.00 0.05 0.00 77 1019.9
20260506112113 27 360 2.0 5.0 0.00 0.05 0.00 77 1019.8
20260506111554 27 360 0.0 0.0 0.00 0.05 0.00 77 1019.9
20260506111041 27 360 0.0 0.0 0.00 0.05 0.00 76 1019.9
20260506110542 27 360 0.0 3.0 0.00 0.06 0.00 76 1019.9
20260506110025 27 360 0.0 3.0 0.00 0.06 0.00 76 1019.9
20260506105527 27 360 0.0 5.0 0.00 0.06 0.00 76 1019.9
20260506105050 28 360 0.0 5.0 0.00 0.06 0.00 76 1019.9
20260506104532 28 360 0.0 3.0 0.00 0.06 0.00 74 1019.9
20260506104034 28 360 0.0 0.0 0.00 0.06 0.00 74 1019.9
20260506103616 29 360 0.0 0.0 0.00 0.06 0.00 74 1019.8
20260506103057 30 360 0.0 0.0 0.00 0.06 0.00 73 1019.8
20260506102539 31 360 0.0 0.0 0.00 0.06 0.00 73 1019.9
20260506102042 31 360 0.0 0.0 0.00 0.06 0.00 73 1019.8
20260506101524 32 360 0.0 0.0 0.00 0.06 0.00 73 1019.9
20260506101028 32 360 0.0 0.0 0.00 0.06 0.00 73 1019.7
20260506100529 31 360 0.0 0.0 0.00 0.07 0.00 74 1019.7
20260506100031 31 360 0.0 0.0 0.00 0.07 0.00 73 1019.7
20260506095614 31 360 0.0 0.0 0.00 0.07 0.00 73 1019.7
20260506094534 32 360 0.0 0.0 0.00 0.07 0.00 73 1019.6
20260506094058 32 360 0.0 0.0 0.00 0.07 0.00 73 1019.6
20260506093538 32 360 0.0 0.0 0.00 0.07 0.00 73 1019.6
20260506093120 31 360 0.0 0.0 0.00 0.07 0.00 73 1019.5
20260506092541 31 360 0.0 0.0 0.00 0.07 0.00 73 1019.6
20260506092028 31 360 0.0 0.0 0.00 0.07 0.00 73 1019.5
20260506091551 31 360 0.0 3.0 0.00 0.07 0.00 74 1019.5
20260506091033 30 360 1.0 5.0 0.00 0.07 0.00 74 1019.5
20260506090534 30 360 3.0 6.0 0.00 0.09 0.00 74 1019.4
20260506090036 30 360 3.0 6.0 0.00 0.09 0.00 73 1019.4
20260506085558 30 360 5.0 6.0 0.00 0.09 0.00 72 1019.4
20260506085100 30 360 4.0 6.0 0.00 0.09 0.00 72 1019.4
20260506084602 31 360 1.0 5.0 0.00 0.09 0.00 71 1019.4
20260506084104 31 360 4.0 5.0 0.00 0.09 0.00 70 1019.4
20260506083526 31 360 1.0 5.0 0.00 0.09 0.00 69 1019.4
20260506083028 32 360 0.0 4.0 0.00 0.09 0.00 67 1019.4
20260506082531 33 360 2.0 5.0 0.00 0.09 0.00 66 1019.4
20260506082054 33 360 1.0 5.0 0.00 0.09 0.00 65 1019.3
20260506081556 34 360 2.0 7.0 0.00 0.09 0.00 64 1019.3
20260506081059 34 360 5.0 7.0 0.00 0.09 0.00 64 1019.3
20260506080541 34 360 3.0 7.0 0.00 0.10 0.00 63 1019.3
20260506080124 34 360 0.0 1.0 0.00 0.10 0.00 63 1019.4
20260506073054 35 360 0.0 3.0 0.00 0.10 0.00 63 1019.1
20260506072535 35 360 0.0 3.0 0.00 0.10 0.00 62 1019.1
20260506072057 36 360 0.0 0.0 0.00 0.10 0.00 62 1019.3
20260506071539 36 360 0.0 0.0 0.00 0.10 0.00 61 1019.2
20260506071025 36 360 0.0 0.0 0.00 0.10 0.00 61 1019.2
20260506070548 36 360 0.0 0.0 0.00 0.11 0.00 61 1019.2
20260506062046 36 360 6.0 13.0 0.00 0.11 0.00 62 1018.7
20260506061527 36 360 7.0 13.0 0.00 0.11 0.00 62 1018.8
20260506061110 36 360 9.0 13.0 0.00 0.11 0.00 62 1019.5
20260506060531 36 360 5.0 13.0 0.00 0.11 0.11 62 1019.5
20260506051032 38 360 8.0 14.0 0.00 0.11 0.11 63 1018.9
20260506050533 38 360 5.0 13.0 0.00 0.11 0.11 63 1018.9
20260506045101 38 360 9.0 15.0 0.00 0.11 0.11 64 1019.0
20260506044603 38 360 8.0 16.0 0.00 0.11 0.11 64 1019.0
20260506044024 38 360 11.0 16.0 0.00 0.11 0.11 64 1019.0
20260506043529 38 360 11.0 16.0 0.00 0.11 0.11 64 1019.1
20260506043030 38 360 12.0 16.0 0.00 0.11 0.11 64 1019.1
20260506042553 39 360 9.0 15.0 0.00 0.11 0.11 64 1019.1
20260506042115 39 360 9.0 17.0 0.00 0.11 0.11 63 1019.0
20260506041536 39 360 11.0 17.0 0.00 0.11 0.11 63 1019.0
20260506040537 38 360 9.0 15.0 0.00 0.11 0.11 63 1018.9
20260506040101 39 360 7.0 15.0 0.00 0.11 0.11 64 1018.8
20260506035603 39 360 8.0 15.0 0.00 0.11 0.11 64 1018.9
20260506035120 39 360 11.0 15.0 0.00 0.11 0.11 64 1018.8
20260506034525 39 360 9.0 15.0 0.00 0.11 0.11 63 1018.6
20260506034027 39 360 9.0 18.0 0.00 0.11 0.11 63 1018.5
20260506033608 39 360 10.0 18.0 0.00 0.11 0.11 63 1018.4
20260506033049 39 360 11.0 18.0 0.00 0.11 0.11 64 1018.3
20260506032550 39 360 8.0 18.0 0.00 0.11 0.11 64 1018.2
20260506032032 39 360 9.0 19.0 0.00 0.11 0.11 64 1018.1
20260506031555 39 360 13.0 19.0 0.00 0.11 0.11 65 1018.0
20260506031038 39 360 14.0 20.0 0.00 0.11 0.11 65 1017.8
20260506030059 38 360 8.0 16.0 0.00 0.11 0.11 67 1017.7
20260506025541 38 360 9.0 17.0 0.00 0.11 0.11 67 1017.7
20260506025023 38 360 11.0 20.0 0.00 0.11 0.11 67 1017.6
20260506024527 38 360 14.0 20.0 0.00 0.11 0.11 67 1017.4
20260506024029 38 360 14.0 23.0 0.00 0.11 0.11 68 1017.3
20260506023611 38 360 14.0 23.0 0.00 0.11 0.11 68 1017.2
20260506023052 38 360 10.0 20.0 0.00 0.11 0.11 68 1017.1
20260506022554 38 360 16.0 20.0 0.00 0.11 0.11 69 1016.9
20260506022036 38 360 14.0 20.0 0.00 0.11 0.11 69 1016.8
20260506021539 38 360 10.0 18.0 0.00 0.11 0.11 69 1016.8
20260506021101 38 360 12.0 20.0 0.00 0.11 0.11 69 1016.8
20260506020543 38 360 15.0 21.0 0.00 0.11 0.11 70 1016.6
20260506020024 38 360 13.0 22.0 0.00 0.11 0.11 70 1016.5
20260506015607 38 360 13.0 25.0 0.00 0.11 0.11 69 1016.4
20260506015028 38 360 16.0 26.0 0.00 0.11 0.11 69 1016.3
20260506014531 39 360 16.0 23.0 0.00 0.11 0.11 67 1016.3
20260506014052 40 360 18.0 23.0 0.00 0.11 0.11 64 1017.1
20260506013555 41 360 12.0 21.0 0.00 0.11 0.11 60 1017.0
20260506013116 41 360 15.0 21.0 0.00 0.11 0.11 63 1017.1
20260506012536 41 360 11.0 20.0 0.00 0.11 0.11 63 1017.2
20260506011600 41 360 14.0 19.0 0.01 0.11 0.11 65 1016.5
20260506011041 41 360 13.0 19.0 0.01 0.11 0.11 65 1016.3
20260506010542 41 360 10.0 21.0 0.01 0.11 0.11 64 1016.2
20260506010028 41 360 15.0 21.0 0.01 0.11 0.11 63 1016.1
20260506005550 41 360 10.0 19.0 0.01 0.11 0.11 61 1016.0
20260506005052 41 360 11.0 19.0 0.01 0.11 0.11 61 1016.0
20260506004534 41 360 10.0 18.0 0.01 0.11 0.11 65 1016.1
20260506003535 41 360 12.0 19.0 0.01 0.11 0.11 68 1016.1
20260506003034 40 360 11.0 18.0 0.01 0.11 0.11 68 1016.1
20260506002557 40 360 13.0 18.0 0.01 0.11 0.11 68 1016.1
20260506001540 40 360 12.0 18.0 0.01 0.11 0.11 68 1016.1
20260506000559 40 360 7.0 16.0 0.00 0.10 0.10 68 1016.1
20260506000120 40 360 10.0 16.0 0.00 0.10 0.10 68 1016.1
20260505235540 40 360 9.0 14.0 0.00 0.10 0.10 68 1016.2
20260505235025 40 360 7.0 14.0 0.00 0.10 0.10 69 1016.2
20260505234528 39 360 6.0 13.0 0.00 0.10 0.10 71 1016.2
20260505234111 39 360 5.0 12.0 0.00 0.10 0.10 72 1016.2
20260505233027 39 360 7.0 19.0 0.00 0.10 0.10 71 1016.1
20260505232534 40 360 10.0 19.0 0.00 0.10 0.10 69 1016.1
20260505232037 40 360 10.0 18.0 0.00 0.10 0.10 66 1016.1
20260505231538 41 360 7.0 17.0 0.00 0.10 0.10 62 1016.0
20260505231042 41 360 7.0 15.0 0.00 0.10 0.10 57 1015.9
20260505230623 41 360 5.0 12.0 0.00 0.10 0.10 58 1015.7
20260505230024 41 360 7.0 17.0 0.00 0.10 0.10 59 1015.7
20260505225527 42 360 7.0 21.0 0.00 0.10 0.10 57 1015.6
20260505225050 42 360 13.0 22.0 0.00 0.10 0.10 56 1015.6
20260505224531 43 360 10.0 27.0 0.00 0.10 0.10 55 1015.5
20260505224035 44 360 12.0 27.0 0.00 0.10 0.10 52 1015.2
20260505223536 45 360 10.0 19.0 0.00 0.10 0.10 47 1014.9
20260505223058 45 360 5.0 18.0 0.00 0.10 0.10 45 1014.8
20260505222600 45 360 12.0 18.0 0.00 0.10 0.10 43 1014.7
20260505222042 45 360 7.0 16.0 0.00 0.10 0.10 44 1014.5
20260505221524 45 360 10.0 25.0 0.00 0.10 0.10 46 1014.5
20260505221048 45 360 14.0 25.0 0.00 0.10 0.10 45 1014.5
20260505220530 45 360 7.0 19.0 0.00 0.10 0.10 45 1014.4
20260505220052 45 360 4.0 19.0 0.00 0.10 0.10 46 1014.6
20260505215554 45 360 9.0 19.0 0.00 0.10 0.10 42 1014.4
20260505215056 45 360 7.0 18.0 0.00 0.10 0.10 42 1014.4
20260505214541 45 360 8.0 21.0 0.00 0.10 0.10 42 1014.4
20260505214024 46 360 13.0 21.0 0.00 0.10 0.10 42 1014.2
20260505213546 46 360 15.0 25.0 0.00 0.10 0.10 41 1014.9
20260505213046 46 360 11.0 25.0 0.00 0.10 0.10 40 1014.8
20260505212527 46 360 8.0 20.0 0.00 0.10 0.10 40 1014.7
20260505212030 46 360 11.0 20.0 0.00 0.10 0.10 41 1014.8
20260505211533 46 360 7.0 20.0 0.00 0.10 0.10 41 1014.6